WB2CMF Weather Reports


time (UTC)temp
C
wind
direction
speed
KPH
gust
KPH
rain 1hr
cm
rain 24hr
cm
rain mn
cm
humidity
%
barometer
mb
20260506110016 14 195 3.2 16.1 0.00 0.00 0.00 65 1011.4
20260506093016 13 210 3.2 12.9 0.00 0.00 0.00 67 1011.4
20260506090016 13 187 8.0 14.5 0.00 0.00 0.00 66 1011.5
20260506083016 13 148 1.6 14.5 0.00 0.00 0.00 66 1011.7
20260506073016 13 238 4.8 17.7 0.00 0.00 0.00 66 1012.0
20260506043016 15 203 1.6 16.1 0.00 0.00 0.00 64 1012.6
20260506033016 15 239 4.8 14.5 0.00 0.00 0.00 63 1012.7
20260506030015 15 197 3.2 16.1 0.00 0.00 0.00 64 1012.7
20260506023016 15 176 8.0 14.5 0.00 0.00 0.00 63 1012.7
20260506020016 15 226 6.4 19.3 0.00 0.00 0.00 62 1012.5
20260506013016 16 214 9.7 24.1 0.00 0.00 0.00 59 1012.1
20260506010015 16 203 8.0 19.3 0.00 0.00 0.00 58 1011.5
20260506000015 16 138 6.4 20.9 0.00 0.00 0.00 58 1011.0
20260505233015 16 172 3.2 20.9 0.00 0.00 0.00 57 1010.6
20260505230015 16 210 12.9 22.5 0.00 0.00 0.00 57 1010.4
20260505223015 17 204 9.7 25.7 0.00 0.00 0.00 56 1010.1
20260505220015 17 181 9.7 17.7 0.00 0.00 0.00 54 1010.0
20260505213015 17 188 6.4 19.3 0.00 0.00 0.00 53 1009.7
20260505210015 17 201 8.0 20.9 0.00 0.00 0.00 53 1009.6
20260505203015 18 235 3.2 16.1 0.00 0.00 0.00 52 1009.8
20260505200014 17 212 9.7 20.9 0.00 0.00 0.00 53 1010.2
20260505193014 18 212 6.4 20.9 0.00 0.00 0.00 53 1010.3
20260505190014 18 212 11.3 16.1 0.00 0.00 0.00 54 1010.9
20260505183014 18 210 8.0 14.5 0.00 0.00 0.00 54 1011.1
20260505180014 18 205 4.8 11.3 0.00 0.00 0.00 54 1011.4
20260505163014 18 200 3.2 12.9 0.00 0.00 0.00 54 1011.7
20260505153014 19 195 1.6 9.7 0.00 0.00 0.00 54 1012.1
20260505123013 15 200 1.6 6.4 0.00 0.00 0.00 60 1011.9
20260505120014 14 196 1.6 8.0 0.00 0.00 0.00 62 1011.8
20260505113013 13 204 4.8 6.4 0.00 0.00 0.00 67 1011.9